User: anonymous   Login
Location: Unspecified
(0.0000°N, 0.0000°E)
Time: 09:35:59
(UTC+00:00)
Language:

N. Korean satellite - Orbit

View from above orbital plane
View from above orbital plane
View from above satellite
View from above satellite

Ground track
Ground track

The orbit data is extracted from the following two-line orbital elements,

1 39026U 12072A   16178.15349062  .00001954  00000-0  82325-4 0  9998
2 39026  97.2475 202.0635 0042302 358.4931   1.6172 15.23717644195741
Epoch (UTC): 26 June 2016 03:41:01
Eccentricity: 0.0042302
inclination: 97.2475°
perigee height: 465 km
apogee height: 524 km
right ascension of ascending node: 202.0635°
argument of perigee: 358.4931°
revolutions per day: 15.23717644
mean anomaly at epoch: 1.6172°
orbit number at epoch: 19574

The dashed part of the orbit path shows where the satellite is in the earth's shadow,  

DLR